This demonstration page uses our WeatherBlox Daily Observations layout. Learn more.

40.92945, -100.16068

Hourly Observations for July 23, 2015

Temp ( °F °C ) Dew Point ( °F °C ) Humidity (%) Winds ( mph kmh ) Pressure ( in mb ) Visibility ( mi km ) Precip ( " mm )
12:15 am 00:15 Clear 72 22.2 67 19.7 86 86 SE 10 17 29.83 1010 10 16.0934 N/A
12:35 am 00:35 Clear 72 22 67 19.5 86 86 SSE 10 17 29.83 1010 10 16.0934 N/A
12:55 am 00:55 Clear 71 21.9 67 19.5 86 86 SE 9 15 29.83 1010 10 16.0934 N/A
1:15 am 01:15 Clear 71 21.7 67 19.5 87 87 SSE 9 15 29.83 1010 10 16.0934 N/A
1:35 am 01:35 Clear 71 21.6 67 19.5 88 88 SE 9 15 29.83 1010 10 16.0934 N/A
1:55 am 01:55 Clear 71 21.5 67 19.5 88 88 SE 10 17 29.83 1010 10 16.0934 N/A
2:15 am 02:15 Clear 71 21.5 67 19.5 88 88 SSE 9 15 29.83 1010 10 16.0934 N/A
2:35 am 02:35 Clear 70 21.1 67 19.5 91 91 SE 9 15 29.83 1010 10 16.0934 N/A
2:55 am 02:55 Clear 70 21 67 19.3 90 90 SSE 9 15 29.83 1010 10 16.0934 N/A
3:15 am 03:15 Clear 70 21 67 19.5 91 91 SSE 7 11 29.83 1010 10 16.0934 N/A
3:35 am 03:35 Clear 69 20.6 67 19.4 93 93 SSE 7 11 29.83 1010 10 16.0934 N/A
3:55 am 03:55 Clear 69 20.6 67 19.5 93 93 SSE 8 13 29.83 1010 10 16.0934 N/A
4:15 am 04:15 Clear 69 20.6 67 19.5 93 93 SSE 7 11 29.83 1010 10 16.0934 N/A
4:35 am 04:35 Clear 69 20.5 67 19.5 94 94 SE 6 9 29.83 1010 10 16.0934 N/A
4:55 am 04:55 Clear 69 20.5 67 19.5 94 94 SE 5 7 29.83 1010 10 16.0934 N/A
5:15 am 05:15 Clear 69 20.4 67 19.4 94 94 SE 5 7 29.83 1010 10 16.0934 N/A
5:35 am 05:35 Clear 69 20.5 67 19.5 94 94 SE 3 6 29.83 1010 7 11.26538 N/A
5:55 am 05:55 Clear 69 20.5 67 19.6 95 95 Calm 29.85 1011 7 11.26538 N/A
6:15 am 06:15 Clear with Mist and Fog 68 19.9 66 19.1 95 95 ESE 3 6 29.85 1011 5 8.0467 N/A
6:35 am 06:35 Partly Cloudy with Mist and Fog 68 20.2 67 19.5 96 96 SE 6 9 29.85 1011 4 6.43736 N/A
6:55 am 06:55 Mostly Cloudy with Mist and Fog 69 20.5 68 19.8 96 96 SE 6 9 29.85 1011 4 6.43736 N/A
7:15 am 07:15 Cloudy with Mist and Fog 69 20.8 68 20.1 96 96 SE 7 11 29.85 1011 4 6.43736 N/A
7:35 am 07:35 Cloudy with Mist and Fog 70 21 68 20.1 95 95 SSE 7 11 29.85 1011 3 4.82802 N/A
7:55 am 07:55 Cloudy with Mist and Fog 70 21.1 69 20.4 96 96 SSE 6 9 29.85 1011 3 4.82802 N/A
8:15 am 08:15 Cloudy with Mist and Fog 71 21.5 69 20.8 96 96 SSE 6 9 29.88 1012 4 6.43736 N/A
8:35 am 08:35 Cloudy with Mist and Fog 72 22 70 21 94 94 SSE 7 11 29.88 1012 5 8.0467 N/A
8:55 am 08:55 Cloudy 72 22.4 70 21.3 94 94 SE 7 11 29.88 1012 7 11.26538 N/A
9:15 am 09:15 Cloudy 73 23 71 21.6 92 92 SE 7 11 29.88 1012 10 16.0934 N/A
9:35 am 09:35 Cloudy 74 23.5 71 21.8 90 90 SSE 9 15 29.85 1011 7 11.26538 N/A
9:55 am 09:55 Cloudy 76 24.6 72 22.3 87 87 S 8 13 29.85 1011 7 11.26538 N/A
10:15 am 10:15 Cloudy 76 24.7 72 22.3 87 87 S 10 17 29.85 1011 7 11.26538 N/A
10:35 am 10:35 Cloudy 77 25 73 22.5 86 86 S 13 20 29.85 1011 7 11.26538 N/A
10:55 am 10:55 Cloudy 78 25.5 73 22.5 84 84 SSW 13 20 29.85 1011 10 16.0934 N/A
11:15 am 11:15 Cloudy 79 26.2 73 22.9 82 82 S 15 24 29.85 1011 10 16.0934 N/A
11:35 am 11:35 Cloudy 80 26.5 73 22.7 80 80 SSW 14 22 29.83 1010 10 16.0934 N/A
11:55 am 11:55 Cloudy 78 25.8 73 22.5 82 82 SSW 13 20 29.85 1011 10 16.0934 N/A
12:15 pm 12:15 Cloudy 81 27.4 73 22.6 75 75 SSW 12 19 29.83 1010 10 16.0934 N/A
12:35 pm 12:35 Mostly Cloudy 82 27.5 73 22.8 76 76 SW 12 19 29.83 1010 10 16.0934 N/A
12:55 pm 12:55 Mostly Cloudy 83 28.6 73 22.9 71 71 SSW 13 20 29.83 1010 10 16.0934 N/A
1:15 pm 13:15 Mostly Cloudy 85 29.6 74 23.2 69 69 SSW 10 17 29.77 1008 10 16.0934 N/A
1:35 pm 13:35 Mostly Cloudy 87 30.4 74 23.5 67 67 SW 9 15 29.77 1008 10 16.0934 N/A
1:55 pm 13:55 Mostly Cloudy 89 31.4 74 23.5 63 63 SSW 12 19 29.77 1008 10 16.0934 N/A
2:15 pm 14:15 Mostly Cloudy 90 32.2 74 23.1 59 59 SSW 14 22 29.77 1008 10 16.0934 N/A
2:35 pm 14:35 Mostly Cloudy 90 32.1 73 22.7 58 58 SSW 13 20 29.77 1008 10 16.0934 N/A
2:55 pm 14:55 Mostly Cloudy 91 32.6 73 22.6 56 56 S 13 20 29.74 1007 10 16.0934 N/A
3:15 pm 15:15 Mostly Cloudy 92 33.4 72 22.2 52 52 S 14 22 29.74 1007 10 16.0934 N/A
3:35 pm 15:35 Partly Cloudy 94 34.3 71 21.9 48 48 S 16 26 29.71 1006 10 16.0934 N/A
3:55 pm 15:55 Partly Cloudy 94 34.5 71 21.6 47 47 S 13 20 29.71 1006 10 16.0934 N/A
4:15 pm 16:15 Partly Cloudy 94 34.6 71 21.6 47 47 SSE 15 24 29.71 1006 10 16.0934 N/A
4:35 pm 16:35 Sunny 95 34.9 71 21.9 47 47 S 16 26 29.71 1006 10 16.0934 N/A
4:55 pm 16:55 Sunny 94 34.5 70 21.1 46 46 S 15 24 29.71 1006 10 16.0934 N/A
5:15 pm 17:15 Sunny 94 34.6 71 21.5 46 46 SSE 14 22 29.71 1006 10 16.0934 N/A
5:35 pm 17:35 Sunny 94 34.4 71 21.5 47 47 SSE 14 22 29.71 1006 10 16.0934 N/A
5:55 pm 17:55 Sunny 94 34.7 71 21.4 46 46 SSE 14 22 29.71 1006 10 16.0934 N/A
6:15 pm 18:15 Sunny 94 34.5 69 20.8 45 45 S 14 22 29.71 1006 10 16.0934 N/A
6:35 pm 18:35 Sunny 94 34.4 69 20.6 44 44 S 12 19 29.71 1006 10 16.0934 N/A
6:55 pm 18:55 Sunny 91 32.8 69 20.7 49 49 SSE 10 17 29.74 1007 10 16.0934 N/A
7:15 pm 19:15 Sunny 90 32.2 70 21.1 52 52 S 9 15 29.74 1007 10 16.0934 N/A
7:35 pm 19:35 Sunny with Nearby Thunderstorms 89 31.6 71 21.5 55 55 SSE 9 15 29.74 1007 10 16.0934 N/A
7:55 pm 19:55 Sunny with Nearby Thunderstorms 87 30.5 72 22.3 62 62 SSE 10 17 29.71 1006 10 16.0934 N/A
8:15 pm 20:15 Sunny with Nearby Thunderstorms 86 30 73 22.5 64 64 SSE 9 15 29.71 1006 10 16.0934 N/A
8:35 pm 20:35 Partly Cloudy with Nearby Thunderstorms 85 29.6 73 22.5 66 66 S 10 17 29.74 1007 10 16.0934 N/A
8:55 pm 20:55 Partly Cloudy 86 30.1 71 21.9 62 62 S 13 20 29.71 1006 10 16.0934 N/A
9:15 pm 21:15 Clear 85 29.3 69 20.3 58 58 SW 13 20 29.77 1008 10 16.0934 N/A
9:35 pm 21:35 Clear 80 26.6 68 20 67 67 WSW 6 9 29.77 1008 10 16.0934 N/A
9:55 pm 21:55 Clear 81 27.1 69 20.5 67 67 S 5 7 29.77 1008 10 16.0934 N/A
10:15 pm 22:15 Clear 80 26.5 69 20.5 70 70 S 3 6 29.77 1008 10 16.0934 N/A
10:35 pm 22:35 Clear 79 26.1 70 21.2 74 74 SSE 5 7 29.77 1008 10 16.0934 N/A
10:55 pm 22:55 Clear 78 25.7 70 21.3 77 77 S 6 9 29.77 1008 10 16.0934 N/A
11:15 pm 23:15 Clear 79 26.1 70 21 74 74 WSW 6 9 29.77 1008 10 16.0934 N/A
11:35 pm 23:35 Clear 78 25.6 68 20 71 71 SSW 6 9 29.77 1008 10 16.0934 N/A
11:55 pm 23:55 Clear 78 25.7 66 18.8 66 66 S 6 9 29.77 1008 10 16.0934 N/A

Powered by AerisWeather